Regional Weather Roundup
Issued by NWS Jackson, KY

Home | Current Version | Previous Version | Text Only | Print | Product List | Glossary Off
Versions: 1 2 3 4 5 6 7 8 9 10 11 12 13 14 15 16 17 18 19 20 21 22 23 24 25 26 27 28 29 30 31 32 33 34 35 36 37 38 39 40 41 42 43 44 45 46 47 48 49 50

000
ASUS43 KJKL 200019
RWRJKL

EAST KENTUCKY HOURLY WEATHER ROUNDUP
NATIONAL WEATHER SERVICE JACKSON KY
800 PM EDT SAT APR 19 2014

NOTE: "FAIR" INDICATES FEW OR NO CLOUDS BELOW 12,000 FEET WITH
NO SIGNIFICANT WEATHER AND/OR OBSTRUCTIONS TO VISIBILITY.

* THESE REPORTS ARE NOT UNDER NWS QUALITY CONTROL AND MAY NOT
  REPORT WEATHER SUCH AS PRECIPITATION AND FOG.

KYZ079-080-083-085-087-088-110-112-115-119-120-200100
...EASTERN KENTUCKY...

CITY           SKY/WX    TMP DP  RH WIND       PRES   REMARKS
JACKSON        MOCLDY    67  32  27 NE6       30.18R
6HR MIN TEMP:  67; 6HR MAX TEMP:  75;

LONDON         PTCLDY    71  35  26 NE5       30.15S
6HR MIN TEMP:  71; 6HR MAX TEMP:  76;

SOMERSET*      CLEAR     68  36  30 N10       30.16S
MONTICELLO*    CLEAR     68  42  38 N8        30.17R
6HR MIN TEMP:  68; 6HR MAX TEMP:  74;

MIDDLESBORO*   CLOUDY    71  36  27 E6        30.14S
6HR MIN TEMP:  70; 6HR MAX TEMP:  76;

HARLAN APT*    CLOUDY    66  30  26 E5        30.16R
BLACK MTN*       N/A     54  30  40 N3          N/A
PIKEVILLE APT* CLEAR     64  34  32 N6        30.18R
BIG SANDY*     CLOUDY    66  36  33 NE8       30.18R
6HR MIN TEMP:  66; 6HR MAX TEMP:  74;

ASHLAND*       CLEAR     64  34  32 E3        30.18S
MOREHEAD APT*  CLEAR     66  30  26 MISG      30.21S
$$

KYZ035-036-041-042-044-050-067-078-099-200100
...CENTRAL KENTUCKY...

CITY           SKY/WX    TMP DP  RH WIND       PRES   REMARKS
MT STERLING*   PTCLDY    66  37  34 NE6       30.20S
FLEMING/MASON* CLEAR     64  36  34 N9        30.21S
DANVILLE*      CLEAR     64  39  39 NE8       30.19S
LEXINGTON      CLEAR     65  38  36 N9        30.19S
6HR MIN TEMP:  65; 6HR MAX TEMP:  73;

FRANKFORT      CLEAR     68  32  26 NE7       30.19S
6HR MIN TEMP:  68; 6HR MAX TEMP:  73;

$$

KYZ091>093-OHZ055-061-077-WVZ005-015-034-035-042-200100
...SOUTHERN OHIO/WEST VIRGINIA...

CITY           SKY/WX    TMP DP  RH WIND       PRES   REMARKS
COVINGTON      PTCLDY    65  33  30 NE10      30.23S
COLUMBUS       PTCLDY    62  27  26 NE6       30.26S
DAYTON         PTCLDY    57  34  41 NE8       30.27F
WILMINGTON     CLEAR     58  34  40 NE10      30.24F
HUNTINGTON     CLOUDY    65  31  28 NE7       30.19S
CHARLESTON     CLOUDY    65  34  31 N8        30.19S
PINEVILLE*     CLOUDY    64  39  38 MISG      30.23R
BECKLEY        CLOUDY    61  33  35 N10       30.20S
BLUEFIELD      CLOUDY    60  34  37 SE7       30.21R
$$

VAZ002-007-008-TNZ017-027-036-066-071-200100
...SOUTHWEST VIRGINIA/EAST TENNESSEE...

CITY           SKY/WX    TMP DP  RH WIND       PRES   REMARKS
WISE*          CLOUDY    61  30  31 N6        30.21R
ABINGDON*      CLOUDY    63  35  34 E9        30.18R
BRISTOL        CLOUDY    62  38  40 SW6       30.16S
KNOXVILLE      CLOUDY    59  52  77 N3        30.14S
OAK RIDGE      CLOUDY    64  42  44 CALM      30.16S
CROSSVILLE     MOCLDY    63  39  41 SE6       30.17R
NASHVILLE      PTCLDY    72  40  31 N9        30.14S
$$

...KEY TO REMARKS...
VSB - VISIBILITY IN MILES
WCI - WIND CHILL INDEX
HX  - HEAT INDEX

$$



USA.gov is the U.S. government's official web portal to all federal, state and local government web resources and services.